DW6059 Weather Reports


time (UTC)temp
C
wind
direction
speed
KPH
gust
KPH
rain 1hr
cm
rain 24hr
cm
rain mn
cm
humidity
%
barometer
mb
20260506163046 21 274 0.0 6.4 0.00 0.00 0.00 73 1012.7
20260506161524 21 228 0.0 3.2 0.00 0.00 0.00 72 1012.6
20260506160022 20 226 0.0 3.2 0.00 0.00 0.00 71 1012.8
20260506154519 20 240 0.0 4.8 0.00 0.00 0.00 72 1013.0
20260506153018 20 214 0.0 6.4 0.00 0.00 0.00 71 1012.9
20260506151518 20 150 1.6 8.0 0.00 0.00 0.00 70 1012.9
20260506150017 20 193 3.2 11.3 0.00 0.00 0.00 68 1012.5
20260506144513 20 15 1.6 9.7 0.00 0.00 0.00 69 1012.6
20260506143011 20 155 3.2 11.3 0.00 0.00 0.00 71 1012.8
20260506141511 20 131 1.6 6.4 0.00 0.00 0.00 71 1012.9
20260506140008 18 299 1.6 8.0 0.00 0.00 0.00 73 1012.7
20260506134507 18 239 0.0 11.3 0.00 0.00 0.00 75 1013.2
20260506133006 18 171 3.2 11.3 0.00 0.00 0.00 74 1012.8
20260506131505 18 124 1.6 12.9 0.00 0.00 0.00 74 1012.8
20260506130006 18 158 0.0 9.7 0.00 0.00 0.00 76 1012.7
20260506124504 18 323 4.8 14.5 0.00 0.00 0.00 76 1012.5
20260506123003 17 280 3.2 8.0 0.00 0.00 0.00 78 1012.4
20260506121502 17 274 0.0 9.7 0.00 0.00 0.00 80 1012.2
20260506120002 16 270 0.0 4.8 0.00 0.00 0.00 80 1012.5
20260506114607 16 152 1.6 8.0 0.00 0.00 0.00 80 1012.6
20260506114500 16 219 1.6 8.0 0.00 0.00 0.00 81 1012.5
20260506113101 16 164 0.0 6.4 0.00 0.00 0.00 81 1012.5
20260506111559 16 133 3.2 8.0 0.00 0.00 0.00 81 1012.4
20260506110104 16 264 0.0 6.4 0.00 0.00 0.00 81 1012.5
20260506104557 16 293 1.6 8.0 0.00 0.00 0.00 81 1012.5
20260506103056 16 219 1.6 8.0 0.00 0.00 0.00 81 1012.5
20260506101603 16 234 1.6 9.7 0.00 0.00 0.00 81 1012.3
20260506100054 16 253 0.0 6.4 0.00 0.00 0.00 81 1012.2
20260506094615 16 217 1.6 9.7 0.00 0.00 0.00 80 1012.3
20260506093054 16 308 0.0 11.3 0.00 0.00 0.00 80 1012.5
20260506091549 16 176 0.0 4.8 0.00 0.00 0.00 80 1012.6
20260506090048 16 295 0.0 9.7 0.00 0.00 0.00 79 1012.4
20260506084548 16 157 0.0 4.8 0.00 0.00 0.00 79 1012.5
20260506083046 16 274 0.0 6.4 0.00 0.00 0.00 79 1012.5
20260506081544 16 241 1.6 9.7 0.00 0.00 0.00 78 1012.7
20260506073043 17 252 1.6 6.4 0.00 0.00 0.00 76 1012.7
20260506071538 17 205 1.6 6.4 0.00 0.00 0.00 76 1012.7
20260506061535 17 169 3.2 12.9 0.00 0.00 0.00 75 1012.9
20260506044515 18 283 1.6 9.7 0.00 0.00 0.00 72 1013.5
20260506043013 18 302 3.2 12.9 0.00 0.00 0.00 71 1013.7
20260506041512 18 269 1.6 8.0 0.00 0.00 0.00 71 1013.7
20260506040032 19 229 3.2 12.9 0.00 0.00 0.00 70 1013.7
20260506034509 19 268 0.0 14.5 0.00 0.00 0.00 70 1013.6
20260506033007 19 307 1.6 8.0 0.00 0.00 0.00 70 1013.4
20260506031517 20 84 3.2 9.7 0.00 0.00 0.00 70 1013.5
20260506030007 20 281 1.6 8.0 0.00 0.00 0.00 69 1013.6
20260506024515 20 35 0.0 6.4 0.00 0.00 0.00 68 1013.5
20260506023004 20 183 1.6 6.4 0.00 0.00 0.00 65 1013.4
20260506021506 20 290 0.0 6.4 0.00 0.00 0.00 63 1013.3
20260506020003 21 283 1.6 6.4 0.00 0.00 0.00 61 1013.1
20260506014501 21 218 0.0 6.4 0.00 0.00 0.00 61 1012.9
20260506013002 21 210 0.0 3.2 0.00 0.00 0.00 61 1012.8
20260506011501 21 244 0.0 4.8 0.00 0.00 0.00 59 1012.6
20260506010003 21 248 0.0 6.4 0.00 0.00 0.00 58 1012.5
20260506004600 22 262 0.0 4.8 0.00 0.00 0.00 57 1012.3
20260506003100 22 243 0.0 3.2 0.00 0.00 0.00 55 1012.3
20260506001559 22 289 0.0 3.2 0.00 0.00 0.00 54 1012.2
20260505234604 23 290 1.6 6.4 0.00 0.00 0.00 50 1012.0
20260505233110 24 220 0.0 8.0 0.00 0.00 0.00 49 1012.0
20260505231602 24 232 3.2 12.9 0.00 0.00 0.00 48 1011.9
20260505230054 25 273 1.6 9.7 0.00 0.00 0.00 46 1012.0
20260505224549 25 150 3.2 11.3 0.00 0.00 0.00 45 1012.1
20260505223052 26 184 1.6 8.0 0.00 0.00 0.00 46 1012.1
20260505221549 25 281 3.2 11.3 0.00 0.00 0.00 45 1012.0
20260505220045 25 109 3.2 8.0 0.00 0.00 0.00 44 1012.2
20260505214550 26 295 4.8 14.5 0.00 0.00 0.00 42 1012.0
20260505213043 27 280 3.2 14.5 0.00 0.00 0.00 40 1012.2
20260505211542 27 276 1.6 16.1 0.00 0.00 0.00 42 1012.2
20260505210042 27 171 3.2 12.9 0.00 0.00 0.00 41 1012.3
20260505204542 27 257 3.2 14.5 0.00 0.00 0.00 40 1012.3
20260505203037 27 66 1.6 14.5 0.00 0.00 0.00 41 1012.3
20260505201536 26 274 3.2 9.7 0.00 0.00 0.00 41 1012.3
20260505200040 27 267 3.2 12.9 0.00 0.00 0.00 40 1012.6
20260505194530 28 150 3.2 9.7 0.00 0.00 0.00 41 1012.7
20260505193028 27 190 3.2 11.3 0.00 0.00 0.00 39 1013.0
20260505191526 28 131 1.6 12.9 0.00 0.00 0.00 37 1013.1
20260505190033 28 286 4.8 16.1 0.00 0.00 0.00 36 1013.4
20260505184522 28 276 4.8 11.3 0.00 0.00 0.00 36 1013.8
20260505183020 28 302 3.2 11.3 0.00 0.00 0.00 37 1014.1
20260505181519 27 226 3.2 14.5 0.00 0.00 0.00 38 1014.1
20260505180018 27 174 3.2 17.7 0.00 0.00 0.00 39 1014.1
20260505174517 27 198 4.8 12.9 0.00 0.00 0.00 38 1014.1
20260505173017 27 220 3.2 11.3 0.00 0.00 0.00 41 1014.1
20260505171521 27 282 1.6 8.0 0.00 0.00 0.00 42 1014.2
20260505170016 27 221 3.2 8.0 0.00 0.00 0.00 42 1014.3
20260505164511 27 142 1.6 14.5 0.00 0.00 0.00 42 1014.6